GW5022 Weather Reports


time (UTC)temp
F
wind
direction
speed
knots
gust
knots
rain 1hr
in
rain 24hr
in
rain mn
in
humidity
%
barometer
mb
20260504070201 47 242 7.8 9.6 0.00 0.00 0.00 71 1005.0
20260504060202 46 237 7.0 7.8 0.00 0.00 0.00 66 1005.6
20260504050227 46 240 5.2 5.2 0.00 0.00 0.00 56 1006.0
20260504045724 46 240 5.2 5.2 0.00 0.00 0.00 56 1006.0
20260504044709 46 214 5.2 9.6 0.00 0.00 0.00 54 1006.0
20260504043204 46 227 7.8 8.7 0.00 0.00 0.00 51 1006.3
20260504041704 47 228 7.8 8.7 0.00 0.00 0.00 50 1006.3
20260504040228 47 231 8.7 9.6 0.00 0.00 0.00 48 1006.0
20260504034738 48 224 7.8 9.6 0.00 0.00 0.00 46 1006.0
20260504031702 48 225 7.0 7.0 0.00 0.00 0.00 46 1006.1
20260504030203 48 231 7.0 7.0 0.00 0.00 0.00 46 1006.2
20260504024708 48 228 7.0 7.0 0.00 0.00 0.00 47 1006.2
20260504023202 47 223 6.1 7.0 0.00 0.00 0.00 48 1006.5
20260504020202 48 234 6.1 7.8 0.00 0.00 0.00 48 1007.0
20260504014704 49 237 5.2 8.7 0.00 0.00 0.00 48 1007.0
20260504013202 49 233 7.0 7.0 0.00 0.00 0.00 48 1006.7
20260504011711 49 248 4.3 5.2 0.00 0.00 0.00 49 1006.7
20260504010228 50 235 6.1 7.0 0.00 0.00 0.00 46 1006.4
20260504003202 51 234 7.0 7.8 0.00 0.00 0.00 43 1006.3
20260504001702 51 235 6.1 7.8 0.00 0.00 0.00 42 1006.3
20260503235719 52 245 7.0 9.6 0.00 0.00 0.00 41 1006.5
20260503234713 53 243 7.0 7.8 0.00 0.00 0.00 40 1006.5
20260503233229 54 237 6.1 8.7 0.00 0.00 0.00 39 1006.3
20260503231214 54 239 8.7 9.6 0.00 0.00 0.00 38 1006.4
20260503225845 54 243 7.8 11.3 0.00 0.00 0.00 35 1006.1
20260503224702 54 244 8.7 10.4 0.00 0.00 0.00 35 1006.1
20260503221702 55 263 9.6 13.0 0.00 0.00 0.00 32 1006.1
20260503220202 54 260 8.7 13.9 0.00 0.00 0.00 32 1006.2
20260503214701 54 258 10.4 12.2 0.00 0.00 0.00 33 1006.2
20260503213202 54 255 8.7 13.0 0.00 0.00 0.00 34 1006.5
20260503211702 54 244 10.4 13.0 0.00 0.00 0.00 35 1006.5
20260503210203 54 266 11.3 13.9 0.00 0.00 0.00 34 1006.4
20260503203202 54 259 11.3 13.9 0.00 0.00 0.00 35 1006.6
20260503201702 54 281 7.8 13.9 0.00 0.00 0.00 37 1006.6
20260503200228 53 256 9.6 13.0 0.00 0.00 0.00 37 1006.7
20260503194728 53 300 12.2 13.9 0.00 0.00 0.00 35 1006.7
20260503193202 53 260 10.4 10.4 0.00 0.00 0.00 37 1007.3
20260503191702 53 258 12.2 15.6 0.00 0.00 0.00 37 1007.3
20260503190202 53 269 9.6 10.4 0.00 0.00 0.00 38 1007.5
20260503184702 52 276 10.4 13.0 0.00 0.00 0.00 38 1007.5
20260503183201 51 267 7.8 9.6 0.00 0.02 0.00 42 1007.6
20260503181701 50 252 8.7 10.4 0.00 0.10 0.00 43 1007.6
20260503180202 50 291 7.0 9.6 0.00 0.17 0.00 45 1008.0
20260503174702 50 260 12.2 12.2 0.00 0.17 0.00 45 1008.0
20260503173202 50 269 8.7 10.4 0.00 0.17 0.00 46 1008.1
20260503171701 51 260 9.6 12.2 0.00 0.17 0.00 44 1008.1
20260503170202 50 309 9.6 10.4 0.00 0.17 0.00 45 1008.8
20260503160201 48 287 8.7 8.7 0.00 0.17 0.00 47 1009.6
20260503150202 50 316 6.1 7.0 0.00 0.17 0.00 46 1010.2
20260503140202 47 335 7.0 7.0 0.00 0.17 0.00 59 1010.7
20260503130201 45 354 4.3 4.3 0.00 0.18 0.00 70 1010.9
20260503120201 43 331 5.2 5.2 0.00 0.21 0.00 73 1010.8
20260503110201 43 341 4.3 4.3 0.00 0.23 0.00 76 1010.8
20260503100202 39 308 4.3 4.3 0.00 0.26 0.00 91 1010.4
20260503080201 41 251 6.1 6.1 0.00 0.28 0.00 86 1010.6